Regional Weather Roundup
Issued by NWS

Home | Current Version | Previous Version | Graphics & Text | Print | Product List | Glossary On
Versions: 1 2 3 4 5 6 7 8 9 10 11 12 13 14 15 16 17 18 19 20 21 22 23 24 25 26 27
000
ASUS45 KSLC 160810
RWRUT

UTAH REGIONAL WEATHER ROUNDUP
NATIONAL WEATHER SERVICE SALT LAKE CITY UT
100 AM MST MON JAN 16 2017

UTZ001>011-023>025-160900-

NORTHERN UTAH

CITY           SKY/WX    TMP DP  RH WIND       PRES   REMARKS
BRIGHAM CITY     N/A     11   8  85 CALM      30.23S
HILL AFB       CLOUDY    16  10  77 E10       30.19F WCI   4
LOGAN          FOG        3   2  95 CALM      30.25F VSB 1/4
OGDEN          CLOUDY    19  14  81 SW3       30.20F
SALT LAKE CITY CLOUDY    27  24  89 NW8       30.21S FOG     WCI  19
TOOELE VALLEY  CLOUDY    27  25  93 W5        30.23S WCI  21
WENDOVER       PTCLDY    23  19  86 SW6       30.23S WCI  16
HEBER CITY     FOG        9   3  78 CALM      30.16S VSB 1/4
WEST JORDAN    CLOUDY    26  26 100 NW8       30.20S WCI  17

$$

UTZ011>015-024>027-160900-

CENTRAL/NORTHEAST UTAH

CITY           SKY/WX    TMP DP  RH WIND       PRES   REMARKS
PROVO AIRPORT  CLOUDY    27  23  86 N8        30.20S WCI  18
MOAB/CANYONLAN MOCLDY    34  33  96 CALM      29.97R
DELTA          PTCLDY    27  23  86 NW7       30.17F WCI  19
PRICE          CLOUDY    28  19  69 CALM      29.96S
RICHFIELD      CLOUDY    30  27  86 N5        30.16S WCI  25
ROOSEVELT      CLOUDY    30  25  80 CALM      30.09S
VERNAL         CLOUDY    24  21  88 CALM      30.07R

$$

UTZ013>016-019>022-027-160900-

SOUTHERN UTAH

CITY           SKY/WX    TMP DP  RH WIND       PRES   REMARKS
BRYCE CANYON   CLOUDY    20  17  88 NW15      30.02S WCI   6
CEDAR CITY     CLOUDY    28  21  75 N10       30.10S WCI  19
MILFORD        CLOUDY    30  23  75 N10       30.14F WCI  21
ST GEORGE      MOSUNNY   34  25  69 SE7       30.10S WCI  28
HANKSVILLE     CLOUDY    36  36 100 MISG      30.00S
KANAB          CLEAR     28  27  93 CALM      30.07S
BLANDING       CLOUDY    35  35  99 CALM      30.00S

$$

REGIONAL REPORTS     COLORADO/ARIZONA

CITY           SKY/WX    TMP DP  RH WIND       PRES   REMARKS
CRAIG, CO      CLOUDY    19  14  81 W6        30.06S WCI  11
GRAND JUNCTION CLOUDY    34  27  75 N7        29.97S WCI  28
RIFLE, CO      CLOUDY    32  26  78 SW3       29.99R
MONTROSE, CO   LGT SNOW  32  32 100 CALM      29.97S FOG
CORTEZ, CO     CLOUDY    36  34  92 W7        29.91S WCI  30
COLORADO CITY  CLOUDY    30  28  93 CALM      30.06S
PAGE, AZ       CLOUDY    42  29  59 NW9       29.96F
GRAND CANYON   CLOUDY    34  33  96 CALM      30.01S
KINGMAN, AZ    CLEAR     36  30  79 CALM      30.03F
FLAGSTAFF, AZ  MOCLDY    33  31  92 W8        29.99F WCI  26

$$

REGIONAL REPORTS    NEVADA/IDAHO/WYOMING

CITY           SKY/WX    TMP DP  RH WIND       PRES   REMARKS
LAS VEGAS, NV  CLOUDY    47  28  47 N6        30.04S
ELY, NY        CLOUDY    22  21  96 N10       30.16R WCI  11
ELKO, NV       CLOUDY    22  17  81 NW7       30.25R WCI  13
POCATELLO, ID  LGT SNOW  11   8  88 S5        30.30S FOG     WCI   3
BURLEY, ID     CLOUDY    11   7  84 N5        30.30R WCI   3
FORT BRIDGER,    N/A      9   9  98 W14       30.10S WCI  -7
EVANSTON, WY   CLOUDY     7   1  76 SE3       30.08F
ROCK SPRINGS,  CLOUDY     1  -3  83 W7        30.07F WCI -12

$$




USA.gov is the U.S. government's official web portal to all federal, state and local government web resources and services.